Time,TemperatureF,DewpointF,PressureIn,WindDirection,WindDirectionDegrees,WindSpeedMPH,WindSpeedGustMPH,Humidity,HourlyPrecipIn,Conditions,Clouds,dailyrainin,SoftwareType,DateUTC
2013-05-18 00:12:00,34.5,16.0,29.85,NNW,340,0.0,2.0,47,0.00,,,0.00,weatherlink.com 1.10,2013-05-18 06:12:00,
2013-05-18 00:27:00,34.9,16.0,29.85,NNE,18,0.0,2.0,47,0.00,,,0.00,weatherlink.com 1.10,2013-05-18 06:27:00,
2013-05-18 00:42:00,33.5,17.0,29.85,SSE,153,0.0,2.0,52,0.00,,,0.00,weatherlink.com 1.10,2013-05-18 06:42:00,
2013-05-18 00:57:00,32.0,16.0,29.85,NE,49,0.0,2.0,52,0.00,,,0.00,weatherlink.com 1.10,2013-05-18 06:57:00,
2013-05-18 01:12:00,32.8,19.0,29.86,WNW,284,2.0,2.0,56,0.00,,,0.00,weatherlink.com 1.10,2013-05-18 07:12:00,
2013-05-18 01:27:00,31.6,19.0,29.86,WNW,283,2.0,5.0,60,0.00,,,0.00,weatherlink.com 1.10,2013-05-18 07:27:00,
2013-05-18 01:42:00,31.0,18.0,29.86,NW,316,2.0,3.0,60,0.00,,,0.00,weatherlink.com 1.10,2013-05-18 07:42:00,
2013-05-18 01:57:00,30.9,19.0,29.86,WNW,290,0.0,4.0,61,0.00,,,0.00,weatherlink.com 1.10,2013-05-18 07:57:00,
2013-05-18 02:12:00,30.9,19.0,29.85,WNW,302,3.0,5.0,62,0.00,,,0.00,weatherlink.com 1.10,2013-05-18 08:12:00,
2013-05-18 02:27:00,31.3,19.0,29.86,North,355,0.0,3.0,60,0.00,,,0.00,weatherlink.com 1.10,2013-05-18 08:27:00,
2013-05-18 02:42:00,30.7,19.0,29.86,NNW,334,2.0,3.0,61,0.00,,,0.00,weatherlink.com 1.10,2013-05-18 08:42:00,
2013-05-18 02:57:00,28.9,19.0,29.86,WNW,302,2.0,4.0,66,0.00,,,0.00,weatherlink.com 1.10,2013-05-18 08:57:00,
2013-05-18 03:12:00,29.9,19.0,29.86,NE,36,0.0,0.0,63,0.00,,,0.00,weatherlink.com 1.10,2013-05-18 09:12:00,
2013-05-18 03:27:00,30.6,18.0,29.86,West,278,1.0,3.0,60,0.00,,,0.00,weatherlink.com 1.10,2013-05-18 09:27:00,
2013-05-18 03:42:00,28.1,18.0,29.86,NW,312,0.0,3.0,67,0.00,,,0.00,weatherlink.com 1.10,2013-05-18 09:42:00,
2013-05-18 03:57:00,28.3,19.0,29.86,NNE,29,1.0,2.0,68,0.00,,,0.00,weatherlink.com 1.10,2013-05-18 09:57:00,
2013-05-18 04:12:00,28.4,18.0,29.86,NNW,346,3.0,3.0,66,0.00,,,0.00,weatherlink.com 1.10,2013-05-18 10:12:00,
2013-05-18 04:27:00,27.7,19.0,29.87,West,262,1.0,4.0,71,0.00,,,0.00,weatherlink.com 1.10,2013-05-18 10:27:00,
2013-05-18 04:43:00,27.1,19.0,29.87,NW,309,1.0,3.0,72,0.00,,,0.00,weatherlink.com 1.10,2013-05-18 10:43:00,
2013-05-18 04:58:00,27.4,19.0,29.87,North,4,2.0,3.0,72,0.00,,,0.00,weatherlink.com 1.10,2013-05-18 10:58:00,
2013-05-18 05:13:00,27.0,19.0,29.87,WSW,238,0.0,4.0,73,0.00,,,0.00,weatherlink.com 1.10,2013-05-18 11:13:00,
2013-05-18 05:28:00,26.5,19.0,29.86,SSW,212,0.0,0.0,74,0.00,,,0.00,weatherlink.com 1.10,2013-05-18 11:28:00,
2013-05-18 05:43:00,26.1,20.0,29.87,WNW,294,0.0,0.0,76,0.00,,,0.00,weatherlink.com 1.10,2013-05-18 11:43:00,
2013-05-18 05:58:00,26.5,20.0,29.87,North,354,0.0,2.0,75,0.00,,,0.00,weatherlink.com 1.10,2013-05-18 11:58:00,
2013-05-18 06:13:00,27.0,20.0,29.88,NNW,342,0.0,0.0,74,0.00,,,0.00,weatherlink.com 1.10,2013-05-18 12:13:00,
2013-05-18 06:28:00,28.0,20.0,29.87,NNW,342,0.0,0.0,71,0.00,,,0.00,weatherlink.com 1.10,2013-05-18 12:28:00,
2013-05-18 06:43:00,28.1,20.0,29.87,NNW,342,0.0,0.0,73,0.00,,,0.00,weatherlink.com 1.10,2013-05-18 12:43:00,
2013-05-18 06:58:00,30.0,23.0,29.87,NNW,342,0.0,0.0,74,0.00,,,0.00,weatherlink.com 1.10,2013-05-18 12:58:00,
2013-05-18 07:13:00,33.8,23.0,29.87,South,191,0.0,0.0,65,0.00,,,0.00,weatherlink.com 1.10,2013-05-18 13:13:00,
2013-05-18 07:28:00,35.3,23.0,29.87,NE,41,2.0,3.0,60,0.00,,,0.00,weatherlink.com 1.10,2013-05-18 13:28:00,
2013-05-18 07:43:00,37.5,22.0,29.86,WNW,302,2.0,4.0,53,0.00,,,0.00,weatherlink.com 1.10,2013-05-18 13:43:00,
2013-05-18 07:58:00,39.3,22.0,29.86,SSE,148,2.0,5.0,50,0.00,,,0.00,weatherlink.com 1.10,2013-05-18 13:58:00,
2013-05-18 08:13:00,40.4,21.0,29.86,SE,139,3.0,8.0,47,0.00,,,0.00,weatherlink.com 1.10,2013-05-18 14:13:00,
2013-05-18 08:28:00,41.4,21.0,29.85,East,82,0.0,4.0,44,0.00,,,0.00,weatherlink.com 1.10,2013-05-18 14:28:00,
2013-05-18 08:43:00,43.1,22.0,29.84,SSW,210,0.0,4.0,44,0.00,,,0.00,weatherlink.com 1.10,2013-05-18 14:43:00,
2013-05-18 08:58:00,45.5,23.0,29.84,SE,142,0.0,2.0,42,0.00,,,0.00,weatherlink.com 1.10,2013-05-18 14:58:00,
2013-05-18 09:13:00,47.7,24.0,29.83,ESE,108,1.0,4.0,40,0.00,,,0.00,weatherlink.com 1.10,2013-05-18 15:13:00,
2013-05-18 09:28:00,50.8,25.0,29.81,NE,36,5.0,9.0,37,0.00,,,0.00,weatherlink.com 1.10,2013-05-18 15:28:00,
2013-05-18 09:43:00,51.5,22.0,29.80,WSW,240,7.0,16.0,31,0.00,,,0.00,weatherlink.com 1.10,2013-05-18 15:43:00,
2013-05-18 09:58:00,51.7,21.0,29.79,WNW,293,10.0,19.0,30,0.00,,,0.00,weatherlink.com 1.10,2013-05-18 15:58:00,
2013-05-18 10:13:00,52.0,22.0,29.79,NW,314,7.0,15.0,31,0.00,,,0.00,weatherlink.com 1.10,2013-05-18 16:13:00,
2013-05-18 10:28:00,51.7,21.0,29.78,WNW,288,5.0,11.0,30,0.00,,,0.00,weatherlink.com 1.10,2013-05-18 16:28:00,
2013-05-18 10:43:00,51.8,21.0,29.78,WNW,293,4.0,18.0,30,0.00,,,0.00,weatherlink.com 1.10,2013-05-18 16:43:00,
2013-05-18 10:59:00,54.1,22.0,29.77,SE,142,2.0,14.0,29,0.00,,,0.00,weatherlink.com 1.10,2013-05-18 16:59:00,
2013-05-18 11:14:00,54.8,21.0,29.77,WNW,297,6.0,14.0,27,0.00,,,0.00,weatherlink.com 1.10,2013-05-18 17:14:00,
2013-05-18 11:29:00,53.8,22.0,29.77,West,267,3.0,10.0,29,0.00,,,0.00,weatherlink.com 1.10,2013-05-18 17:29:00,
2013-05-18 11:44:00,53.9,20.0,29.77,NW,314,5.0,12.0,27,0.00,,,0.00,weatherlink.com 1.10,2013-05-18 17:44:00,
2013-05-18 11:59:00,54.6,24.0,29.77,SW,226,8.0,19.0,30,0.00,,,0.00,weatherlink.com 1.10,2013-05-18 17:59:00,
2013-05-18 12:14:00,57.5,22.0,29.75,WSW,246,11.0,21.0,25,0.00,,,0.00,weatherlink.com 1.10,2013-05-18 18:14:00,
2013-05-18 12:29:00,55.8,20.0,29.74,WNW,291,5.0,14.0,25,0.00,,,0.00,weatherlink.com 1.10,2013-05-18 18:29:00,
2013-05-18 12:44:00,54.5,23.0,29.75,WNW,300,10.0,17.0,29,0.00,,,0.00,weatherlink.com 1.10,2013-05-18 18:44:00,
2013-05-18 12:59:00,53.2,24.0,29.76,NW,305,9.0,23.0,32,0.00,,,0.00,weatherlink.com 1.10,2013-05-18 18:59:00,
2013-05-18 13:14:00,55.1,26.0,29.74,NNW,344,7.0,16.0,32,0.00,,,0.00,weatherlink.com 1.10,2013-05-18 19:14:00,
2013-05-18 13:29:00,55.4,24.0,29.73,NE,52,5.0,13.0,30,0.00,,,0.00,weatherlink.com 1.10,2013-05-18 19:29:00,
2013-05-18 13:44:00,54.3,22.0,29.74,WSW,238,6.0,18.0,29,0.00,,,0.00,weatherlink.com 1.10,2013-05-18 19:44:00,
2013-05-18 13:59:00,53.5,24.0,29.73,WNW,300,6.0,15.0,32,0.00,,,0.00,weatherlink.com 1.10,2013-05-18 19:59:00,
2013-05-18 14:14:00,53.5,23.0,29.72,West,280,3.0,8.0,30,0.00,,,0.00,weatherlink.com 1.10,2013-05-18 20:14:00,
2013-05-18 14:29:00,55.7,25.0,29.72,ESE,115,2.0,8.0,30,0.00,,,0.00,weatherlink.com 1.10,2013-05-18 20:29:00,
2013-05-18 14:44:00,55.3,23.0,29.72,SSE,156,3.0,9.0,29,0.00,,,0.00,weatherlink.com 1.10,2013-05-18 20:44:00,
2013-05-18 14:59:00,54.4,23.0,29.72,SW,235,9.0,17.0,29,0.00,,,0.00,weatherlink.com 1.10,2013-05-18 20:59:00,
2013-05-18 15:14:00,52.8,23.0,29.74,West,280,8.0,24.0,31,0.00,,,0.00,weatherlink.com 1.10,2013-05-18 21:14:00,
2013-05-18 15:29:00,50.0,26.0,29.77,WNW,291,5.0,20.0,39,0.00,,,0.00,weatherlink.com 1.10,2013-05-18 21:29:00,
2013-05-18 15:44:00,48.5,26.0,29.77,WNW,302,4.0,15.0,42,0.00,,,0.00,weatherlink.com 1.10,2013-05-18 21:44:00,
2013-05-18 15:59:00,47.5,26.0,29.77,WNW,285,9.0,23.0,44,0.00,,,0.00,weatherlink.com 1.10,2013-05-18 21:59:00,
2013-05-18 16:14:00,48.8,26.0,29.78,West,266,6.0,15.0,42,0.00,,,0.00,weatherlink.com 1.10,2013-05-18 22:14:00,
2013-05-18 16:29:00,50.3,28.0,29.77,NNW,328,3.0,13.0,42,0.00,,,0.00,weatherlink.com 1.10,2013-05-18 22:29:00,
2013-05-18 16:44:00,49.2,24.0,29.77,West,273,7.0,23.0,38,0.00,,,0.00,weatherlink.com 1.10,2013-05-18 22:44:00,
2013-05-18 16:59:00,49.6,23.0,29.76,North,350,4.0,11.0,35,0.00,,,0.00,weatherlink.com 1.10,2013-05-18 22:59:00,
2013-05-18 17:14:00,49.8,24.0,29.76,SW,235,4.0,12.0,36,0.00,,,0.00,weatherlink.com 1.10,2013-05-18 23:14:00,
2013-05-18 17:29:00,50.6,25.0,29.76,SW,215,5.0,15.0,37,0.00,,,0.00,weatherlink.com 1.10,2013-05-18 23:29:00,
2013-05-18 17:44:00,51.3,26.0,29.76,NW,309,9.0,14.0,37,0.00,,,0.00,weatherlink.com 1.10,2013-05-18 23:44:00,
2013-05-18 17:59:00,49.6,25.0,29.76,NW,312,6.0,13.0,39,0.00,,,0.00,weatherlink.com 1.10,2013-05-18 23:59:00,
2013-05-18 18:14:00,50.0,26.0,29.76,NW,310,11.0,13.0,40,0.00,,,0.00,weatherlink.com 1.10,2013-05-19 00:14:00,
2013-05-18 18:29:00,48.2,26.0,29.77,West,266,5.0,11.0,43,0.00,,,0.00,weatherlink.com 1.10,2013-05-19 00:29:00,
2013-05-18 18:44:00,47.8,26.0,29.77,NNW,333,5.0,8.0,42,0.00,,,0.00,weatherlink.com 1.10,2013-05-19 00:44:00,
2013-05-18 18:59:00,47.1,25.0,29.77,NW,322,3.0,5.0,42,0.00,,,0.00,weatherlink.com 1.10,2013-05-19 00:59:00,
2013-05-18 19:14:00,46.3,26.0,29.78,WNW,297,3.0,7.0,46,0.00,,,0.00,weatherlink.com 1.10,2013-05-19 01:14:00,
2013-05-18 19:29:00,45.5,27.0,29.79,West,279,2.0,3.0,48,0.00,,,0.00,weatherlink.com 1.10,2013-05-19 01:29:00,
2013-05-18 19:44:00,45.9,26.0,29.80,WNW,288,9.0,15.0,46,0.00,,,0.00,weatherlink.com 1.10,2013-05-19 01:44:00,
2013-05-18 19:59:00,44.5,27.0,29.82,WNW,294,4.0,14.0,51,0.00,,,0.00,weatherlink.com 1.10,2013-05-19 01:59:00,
2013-05-18 20:14:00,43.6,28.0,29.82,WNW,300,5.0,7.0,54,0.00,,,0.00,weatherlink.com 1.10,2013-05-19 02:14:00,
2013-05-18 20:29:00,43.5,27.0,29.82,West,263,10.0,18.0,52,0.00,,,0.00,weatherlink.com 1.10,2013-05-19 02:29:00,
2013-05-18 20:44:00,42.6,27.0,29.83,WNW,288,3.0,9.0,54,0.00,,,0.00,weatherlink.com 1.10,2013-05-19 02:44:00,
2013-05-18 20:59:00,40.6,29.0,29.82,NW,313,5.0,8.0,64,0.00,,,0.00,weatherlink.com 1.10,2013-05-19 02:59:00,
2013-05-18 21:14:00,38.3,29.0,29.81,NW,319,7.0,8.0,70,0.00,,,0.00,weatherlink.com 1.10,2013-05-19 03:14:00,
2013-05-18 21:29:00,36.6,28.0,29.82,NW,315,5.0,7.0,72,0.00,,,0.00,weatherlink.com 1.10,2013-05-19 03:29:00,
2013-05-18 21:44:00,36.1,28.0,29.83,NNW,335,6.0,7.0,73,0.00,,,0.00,weatherlink.com 1.10,2013-05-19 03:44:00,
2013-05-18 21:59:00,37.6,28.0,29.84,WNW,302,5.0,9.0,69,0.00,,,0.00,weatherlink.com 1.10,2013-05-19 03:59:00,
2013-05-18 22:14:00,37.0,28.0,29.84,NW,305,3.0,7.0,70,0.00,,,0.00,weatherlink.com 1.10,2013-05-19 04:14:00,
2013-05-18 22:29:00,36.3,28.0,29.84,NNW,344,4.0,7.0,72,0.00,,,0.00,weatherlink.com 1.10,2013-05-19 04:29:00,
2013-05-18 22:44:00,35.1,28.0,29.84,North,352,2.0,6.0,74,0.00,,,0.00,weatherlink.com 1.10,2013-05-19 04:44:00,
2013-05-18 22:59:00,34.5,27.0,29.84,NNW,348,3.0,5.0,73,0.00,,,0.00,weatherlink.com 1.10,2013-05-19 04:59:00,
2013-05-18 23:14:00,32.8,25.0,29.84,WNW,297,6.0,6.0,74,0.00,,,0.00,weatherlink.com 1.10,2013-05-19 05:14:00,
2013-05-18 23:29:00,31.3,25.0,29.85,NNW,330,2.0,3.0,77,0.00,,,0.00,weatherlink.com 1.10,2013-05-19 05:29:00,
2013-05-18 23:44:00,30.9,25.0,29.85,NNW,339,2.0,3.0,78,0.00,,,0.00,weatherlink.com 1.10,2013-05-19 05:44:00,
2013-05-18 23:59:00,30.7,25.0,29.86,NNW,338,1.0,3.0,78,0.00,,,0.00,weatherlink.com 1.10,2013-05-19 05:59:00,